This demonstration page uses our WeatherBlox Daily Observations layout. Learn more.

Hourly Observations for December 4, 2017

Temp ( °F °C ) Dew Point ( °F °C ) Humidity (%) Winds ( mph kmh ) Pressure ( in mb ) Visibility ( mi km ) Precip ( " mm )
12:15 am 00:15 Clear with Mist and Fog 38 3.2 36 2 92 92 E 5 7 29.5 999 5 8.04672 0 0
12:35 am 00:35 Clear with Mist and Fog 38 3.4 36 2.3 93 93 E 6 9 29.5 999 5 8.04672 0 0
12:55 am 00:55 Clear 38 3.4 36 2.2 92 92 ESE 3 6 29.47 998 7 11.265408 0 0
1:15 am 01:15 Clear with Mist and Fog 37 2.6 35 1.4 92 92 E 3 6 29.47 998 5 8.04672 0 0
1:35 am 01:35 Clear 36 2 33 0.6 91 91 Calm 29.47 998 7 11.265408 0 0
1:55 am 01:55 Clear with Mist and Fog 37 2.5 35 1.4 93 93 Calm 29.47 998 5 8.04672 0 0
2:15 am 02:15 Clear with Mist and Fog 35 1.8 33 0.6 92 92 Calm 29.5 999 5 8.04672 0 0
2:35 am 02:35 Clear with Mist and Fog 35 1.7 33 0.7 93 93 W 5 7 29.5 999 5 8.04672 0 0
2:55 am 02:55 Clear with Mist and Fog 35 1.6 33 0.6 93 93 WSW 5 7 29.47 998 4 6.437376 0 0
3:15 am 03:15 Clear with Mist and Fog 35 1.8 34 1 95 95 SW 9 15 29.5 999 4 6.437376 0 0
3:35 am 03:35 Clear with Mist and Fog 36 2.1 34 1.2 94 94 NW 16 26 29.5 999 3 4.828032 0 0
3:55 am 03:55 Cloudy with Mist and Fog 36 2.4 35 1.6 95 95 NW 12 19 29.5 999 0.75 1.207008 0 0
4:15 am 04:15 Cloudy with Mist and Fog 36 2.3 35 1.5 95 95 WNW 15 24 29.5 999 1.25 2.01168 0 0
4:35 am 04:35 Partly Cloudy 38 3.1 36 2.3 95 95 NW 14 22 29.5 999 7 11.265408 0 0
4:55 am 04:55 Clear 38 3.6 36 2.1 90 90 NW 15 24 29.53 1000 10 16.09344 0 0
5:15 am 05:15 Clear 38 3.6 35 1.7 88 88 NW 12 19 29.53 1000 10 16.09344 0 0
5:35 am 05:35 Clear 39 4 35 1.5 84 84 WNW 17 28 29.53 1000 10 16.09344 0 0
5:55 am 05:55 Clear 38 3.1 33 0.6 84 84 WNW 12 19 29.56 1001 10 16.09344 0 0
6:15 am 06:15 Clear 37 2.6 33 0.5 86 86 WNW 14 22 29.56 1001 10 16.09344 0 0
6:35 am 06:35 Clear 37 2.9 33 0.5 84 84 WNW 20 31 29.59 1002 10 16.09344 0 0
6:55 am 06:55 Clear 38 3.1 33 0.3 82 82 NW 14 22 29.62 1003 10 16.09344 0 0
7:15 am 07:15 Clear 37 2.7 32 0.1 83 83 NW 12 19 29.65 1004 10 16.09344 0 0
7:35 am 07:35 Partly Cloudy 38 3.1 33 0.4 83 83 NW 13 20 29.62 1003 10 16.09344 0 0
7:55 am 07:55 Sunny 37 2.9 32 0.2 83 83 WNW 10 17 29.68 1005 10 16.09344 0 0
8:15 am 08:15 Sunny 38 3.4 33 0.7 83 83 WNW 18 30 29.68 1005 10 16.09344 0 0
8:35 am 08:35 Partly Cloudy 40 4.5 34 1.1 79 79 WNW 18 30 29.68 1005 10 16.09344 0 0
8:55 am 08:55 Partly Cloudy 41 4.8 32 0.2 72 72 NW 26 43 29.71 1006 10 16.09344 0 0
9:15 am 09:15 Sunny 40 4.7 32 -0.2 71 71 NW 21 33 29.71 1006 10 16.09344 0 0
9:35 am 09:35 Partly Cloudy 41 4.8 30 -1 66 66 NW 31 50 29.74 1007 10 16.09344 0 0
9:55 am 09:55 Sunny 41 5 30 -1 66 66 NW 24 39 29.74 1007 10 16.09344 0 0
10:15 am 10:15 Sunny 42 5.5 31 -0.8 64 64 NW 25 41 29.74 1007 10 16.09344 0 0
10:35 am 10:35 Mostly Cloudy 42 5.6 31 -0.7 64 64 NW 28 44 29.77 1008 10 16.09344 0 0
10:55 am 10:55 Cloudy 43 6 31 -0.6 63 63 NW 33 54 29.74 1007 10 16.09344 0 0
11:15 am 11:15 Cloudy 42 5.5 30 -1 63 63 NW 31 50 29.77 1008 10 16.09344 0 0
11:35 am 11:35 Cloudy 42 5.4 30 -1 64 64 NW 30 48 29.77 1008 10 16.09344 0 0
11:55 am 11:55 Cloudy 40 4.7 30 -1.2 66 66 NW 28 44 29.8 1009 10 16.09344 0 0
12:15 pm 12:15 Cloudy 40 4.6 29 -1.8 64 64 NW 29 46 29.8 1009 10 16.09344 0 0
12:35 pm 12:35 Cloudy 40 4.5 27 -2.7 60 60 NW 33 54 29.8 1009 10 16.09344 0 0
12:55 pm 12:55 Cloudy 40 4.7 26 -3.2 57 57 NW 35 56 29.85 1011 10 16.09344 0 0
1:15 pm 13:15 Cloudy 41 4.9 27 -3 57 57 NW 30 48 29.83 1010 10 16.09344 0 0
1:35 pm 13:35 Cloudy 40 4.3 26 -3.5 57 57 NW 39 63 29.88 1012 10 16.09344 0 0
1:55 pm 13:55 Cloudy 39 3.8 25 -3.9 58 58 NW 38 61 29.91 1013 10 16.09344 0 0
2:15 pm 14:15 Mostly Cloudy 38 3.5 25 -4 58 58 NW 38 61 29.91 1013 10 16.09344 0 0
2:35 pm 14:35 Mostly Cloudy 38 3.1 24 -4.5 58 58 NNW 36 57 29.94 1014 10 16.09344 0 0
2:55 pm 14:55 Cloudy 37 2.5 24 -4.2 62 62 NW 40 65 30 1016 10 16.09344 0 0
3:15 pm 15:15 Cloudy 37 2.5 23 -5 58 58 NNW 45 72 30.03 1017 10 16.09344 0 0
3:35 pm 15:35 Partly Cloudy 37 2.6 20 -6.5 52 52 NNW 33 54 30.03 1017 10 16.09344 0 0
3:55 pm 15:55 Sunny 36 2.3 20 -6.9 51 51 NNW 31 50 30.03 1017 10 16.09344 0 0
4:15 pm 16:15 Sunny 35 1.7 10 -12.5 34 34 NW 38 61 30.06 1018 10 16.09344 0 0
4:35 pm 16:35 Sunny 33 0.6 7 -13.9 33 33 NW 38 61 30.12 1020 10 16.09344 0 0
4:55 pm 16:55 Sunny 32 0 6 -14.5 33 33 NW 39 63 30.12 1020 10 16.09344 0 0
5:15 pm 17:15 Clear 31 -0.7 6 -14.5 35 35 NW 28 44 30.15 1021 10 16.09344 0 0
5:35 pm 17:35 Clear 30 -1 5 -15.1 34 34 NW 35 56 30.15 1021 10 16.09344 0 0
5:55 pm 17:55 Clear 29 -1.4 4 -15.5 34 34 NNW 29 46 30.15 1021 10 16.09344 0 0
6:15 pm 18:15 Clear 28 -2 5 -15.2 36 36 NW 28 44 30.21 1023 10 16.09344 0 0
6:35 pm 18:35 Clear 28 -2.3 4 -15.6 36 36 NW 31 50 30.21 1023 10 16.09344 0 0
6:55 pm 18:55 Clear 28 -2.5 5 -15.1 38 38 NW 26 43 30.21 1023 10 16.09344 0 0
7:15 pm 19:15 Clear 27 -2.8 4 -15.3 38 38 NW 22 35 30.24 1024 10 16.09344 0 0
7:35 pm 19:35 Clear 26 -3.1 4 -15.5 38 38 NW 22 35 30.24 1024 10 16.09344 0 0
7:55 pm 19:55 Clear 26 -3.2 4 -15.5 38 38 NW 18 30 30.24 1024 10 16.09344 0 0
8:15 pm 20:15 Clear 26 -3.5 4 -15.5 39 39 NW 15 24 30.27 1025 10 16.09344 0 0
8:35 pm 20:35 Clear 25 -4 4 -15.3 41 41 NW 15 24 30.27 1025 10 16.09344 0 0
8:55 pm 20:55 Clear 24 -4.2 4 -15.4 42 42 NW 15 24 30.3 1026 10 16.09344 0 0
9:15 pm 21:15 Clear 23 -4.8 5 -15.2 44 44 WNW 12 19 30.33 1027 10 16.09344 0 0
9:35 pm 21:35 Clear 21 -6 5 -15.1 49 49 WNW 12 19 30.33 1027 10 16.09344 0 0
9:55 pm 21:55 Clear 22 -5.5 5 -15 48 48 WNW 12 19 30.33 1027 10 16.09344 0 0
10:15 pm 22:15 Clear 21 -6.1 5 -15.2 49 49 WNW 10 17 30.33 1027 10 16.09344 0 0
10:35 pm 22:35 Clear 21 -6 4 -15.4 48 48 WNW 13 20 30.33 1027 10 16.09344 0 0
10:55 pm 22:55 Clear 21 -6.2 5 -15.2 49 49 WNW 9 15 30.33 1027 10 16.09344 0 0
11:15 pm 23:15 Clear 20 -6.5 5 -15 51 51 WNW 10 17 30.33 1027 10 16.09344 0 0
11:35 pm 23:35 Clear 22 -5.7 5 -15 48 48 NW 9 15 30.33 1027 10 16.09344 0 0
11:55 pm 23:55 Clear 20 -6.5 6 -14.5 53 53 WNW 9 15 30.33 1027 10 16.09344 0 0

Powered by AerisWeather